Regional Weather Roundup
Issued by NWS

Home | Current Version | Previous Version | Graphics & Text | Print | Product List | Glossary On
Versions: 1 2 3 4 5 6 7 8 9 10 11 12 13 14 15 16 17 18 19 20 21 22 23 24 25 26 27 28 29 30 31 32 33 34 35 36 37 38 39 40 41 42 43 44 45 46 47 48 49 50
000
ASUS43 KBIS 180259
RWRND

NORTH DAKOTA REGIONAL WEATHER ROUNDUP
NATIONAL WEATHER SERVICE BISMARCK ND
900 PM CST WED DEC 17 2014

NOTE: "FAIR" INDICATES FEW OR NO CLOUDS BELOW 12,000 FEET WITH NO
SIGNIFICANT WEATHER AND/OR OBSTRUCTIONS TO VISIBILITY.


NDZ001>003-009>011-017-180400-
NORTHWEST NORTH DAKOTA

CITY           SKY/WX    TMP DP  RH WIND       PRES   REMARKS
WILLISTON      CLOUDY    20  14  77 SE10      30.08F WCI   9
MINOT          PTCLDY     7   2  80 SE5       30.17S WCI  -2
MINOT AFB      PTCLDY     5   3  92 S5        30.17F WCI  -4
$$

NDZ018>021-031>035-040>046-180400-
SOUTHWEST NORTH DAKOTA

CITY           SKY/WX    TMP DP  RH WIND       PRES   REMARKS
BISMARCK       CLOUDY    16  12  84 SE7       30.19F WCI   6
DICKINSON      CLOUDY    18  16  93 SE15      30.03F FOG     WCI   3
GARRISON         N/A     11   8  88 SE6       30.15F WCI   1
HETTINGER ARPT CLOUDY    17  15  92 SE10      30.06S FOG     WCI   5
$$

NDZ004>008-012>016-024-026-027-054-180400-
NORTHEAST NORTH DAKOTA

CITY           SKY/WX    TMP DP  RH WIND       PRES   REMARKS
GRAND FORKS    PTCLDY     6   3  87 W3        30.31F
DEVILS LAKE    PTCLDY     3  -8  60 CALM      30.23S
$$

NDZ022-023-025-028>030-036>039-047>053-180400-
SOUTHEAST NORTH DAKOTA

CITY           SKY/WX    TMP DP  RH WIND       PRES   REMARKS
FARGO          PTCLDY    10   5  80 CALM      30.32R
$$



USA.gov is the U.S. government's official web portal to all federal, state and local government web resources and services.